Other Surface Observations
Issued by NWS Tucson, AZ

Home | Current Version | Previous Version | Text Only | Print | Product List | Glossary On
Versions: 1 2 3 4 5 6 7 8 9 10 11 12 13 14 15 16 17 18 19 20 21 22 23 24 25 26 27 28 29 30 31 32 33 34 35 36 37 38 39 40 41 42 43 44 45 46 47 48 49 50
092
SXUS55 KTWC 301015
OSOTWC

WEATHER ROUNDUP FOR SOUTHEAST ARIZONA
NATIONAL WEATHER SERVICE TUCSON AZ
315 AM MST FRI SEP 30 2016

AZZ504>506-514-301115-
LOCATION       SKY/WX    TMP DP  RH WIND       PRES   REMARKS
TUCSON         CLEAR     73  59  61 SE15      30.12F
DAVIS-MONTHAN  CLEAR     69  60  72 E12       30.12F
CHILDRENS PARK N/A      N/A N/A  87 NE1               PIMA CO DEQ
ALVERNON/22ND  N/A       71 N/A N/A SE6               PIMA CO DEQ
CHERRY/GLENN   N/A       67 N/A N/A NE1               PIMA CO DEQ
TANGERINE      N/A       67 N/A N/A NE4               PIMA CO DEQ
CONTL RANCH    N/A       70  62  76 E5                PIMA CO DEQ
GRANT/1ST      N/A       68  64  88 NE0               PIMA CO DEQ
CRAYCROFT/22ND N/A       70  62  75 SE6               PIMA CO DEQ
GOLFLINKS/KOLB N/A       69  61  75 SE5               PIMA CO DEQ
AJO/12TH       N/A       70  63  78 SE7               PIMA CO DEQ
FAIRGROUNDS    N/A       71 N/A N/A SE15              PIMA CO DEQ
SAGUARO        N/A       65  64  95 NW2               *SABINO CYN
SAN CARLOS     N/A       69  61  76 E4G14             *SAN CARLOS
GREEN VALLEY   N/A       66  62  86 SW4               PIMA CO DEQ
HORSE CAMP CYN N/A       64  57  78 E11G15            *ARAVAIPA CYN
RINCON MTNS    N/A       53  49  86 N2                *NR MANNING CAMP
$$

AZZ509>511-301115-
LOCATION       SKY/WX    TMP DP  RH WIND       PRES   REMARKS
SAFFORD        PTCLDY    65  60  84 SE10      30.21S
STRAY HORSE    N/A       49  44  83 NE3G10            *
TRAIL CABIN    N/A       53  50  88 SE5G10            *N OF GRANVILLE
BLACK HILLS    NOT AVBL
DRY LAKE       N/A       49  47  93 SE7G13            *NATANES MTNS
NOON CREEK     N/A       59  54  82 SW5G10            *PINALENO MTNS
COLUMBINE      N/A       42  42  100 CALM             *PINALENO MTNS
GUTHRIE        N/A       55  51  87 NE12G18           *SW OF GUTHRIE
$$

AZZ502-503-513-301115-
LOCATION       SKY/WX    TMP DP  RH WIND       PRES   REMARKS
NOGALES        CLEAR     65  58  78 E6        30.19F
SELLS          N/A       72  62  70 E5                *
SASABE         N/A       62  61  96 S3                *ALTAR VLY
HOPKINS        N/A       60  53  78 CALM              *SANTA RITA MTNS
CARR CYN       N/A       57  55  93 SW2               *W OF HEREFORD
$$

AZZ507-508-512-301115-
LOCATION       SKY/WX    TMP DP  RH WIND       PRES   REMARKS
SIERRA VISTA   CLEAR     59  58  94 E3        30.27F
DOUGLAS        MOCLDY    63  61  93 CALM      30.23F
EMPIRE MTNS    NOT AVBL
MULESHOE RANCH N/A       67  52  59 E8G16             *PRESERVE
HEADQUARTERS   N/A       60  57  89 NE7G16            *CHIRICAHUA MTNS
$$

.............................NOTES.............................
THIS IS AN AUTOMATED COLLECTIVE WITH MINIMAL QUALITY CONTROL.
PIMA CO DEQ SITES HAVE NONSTANDARD WIND SENSOR HEIGHTS.
PIMA CO DEQ SITES DO NOT REPORT WIND GUSTS.
* INDICATES WIND SENSORS LOCATED AT 20 FEET INSTEAD OF 33 FEET.
..............................KEY..............................
SKY/WX - SKY CONDITION/WEATHER
TMP    - TEMPERATURE IN FAHRENHEIT
DP     - DEWPOINT IN FAHRENHEIT
RH     - RELATIVE HUMIDITY IN PERCENT
WIND   - DIRECTION AND SPEED IN MILES PER HOUR (MPH)
VRB    - VARIABLE WIND DIRECTION
PRES   - MEAN SEA LEVEL PRESSURE IN INCHES OF MERCURY
         F - FALLING PRESSURE   R - RISING PRESSURE
         S - STEADY PRESSURE
VSB    - VISIBILITY IN MILES
HX     - HEAT INDEX IN FAHRENHEIT
WCI    - WIND CHILL INDEX IN FAHRENHEIT
N/A    - NOT AVAILABLE
AFB    - AIR FORCE BASE
         DAVIS-MONTHAN IS DAVIS-MONTHAN AIR FORCE BASE
CYN    - CANYON
MTNS   - MOUNTAINS
NCA    - NATIONAL CONSERVATION AREA
NR     - NEAR
VLY    - VALLEY
CONTL  - CONTINENTAL
PIMA CO DEQ - PIMA COUNTY DEPT OF ENVIRONMENTAL QUALITY



USA.gov is the U.S. government's official web portal to all federal, state and local government web resources and services.